Regional Weather Roundup
Issued by NWS

Home | Current Version | Previous Version | Text Only | Print | Product List | Glossary Off
Versions: 1 2 3 4 5 6 7 8 9 10 11 12 13 14 15 16 17 18 19 20 21 22 23 24 25 26 27 28 29 30 31 32 33 34 35 36 37 38 39 40 41 42 43 44 45 46 47 48 49 50

000
ASUS43 KDMX 261707
RWRIA

WEATHER ROUNDUP FOR IOWA
NATIONAL WEATHER SERVICE DES MOINES IA
1200 PM CDT TUE MAY 26 2015

NOTE: "FAIR" INDICATES FEW OR NO CLOUDS BELOW 12,000 FEET WITH NO
SIGNIFICANT WEATHER AND/OR OBSTRUCTIONS TO VISIBILITY.

* - THESE STATIONS ARE NOT NWS STATIONS...THUS NOT UNDER NWS
QUALITY CONTROL.  THEY ALSO DO NOT REPORT WEATHER SUCH
AS PRECIPITATION OR FOG.

IAZ001>003-012>014-020>022-031>034-043>046-261800-
   NORTHWEST IOWA

CITY           SKY/WX    TMP DP  RH WIND       PRES   REMARKS
CARROLL *      CLOUDY    63  61  94 SW7       29.80R FOG
CHEROKEE *     LGT RAIN  61  61 100 N6        29.80R
DENISON *      MOSUNNY   64  64 100 CALM      29.78R
LE MARS *      CLOUDY    61  57  88 N12       29.82S
ORANGE CITY *  CLOUDY    57  55  94 N7        29.82R
SHELDON *      CLOUDY    59  41  51 N8        29.80R
SIOUX CITY     CLOUDY    62  58  86 N13       29.80R FOG
SPENCER        LGT RAIN  60  57  89 N7        29.80R
STORM LAKE *   LGT RAIN  61  61 100 SW3       29.81R
$$

IAZ055>058-069>071-079>083-090>094-261800-
   SOUTHWEST IOWA

CITY           SKY/WX    TMP DP  RH WIND       PRES   REMARKS
ATLANTIC *     CLOUDY    66  61  82 S6        29.79S
AUDUBON *      LGT RAIN  63  59  88 CALM      29.81S
COUNCIL BLFS * CLOUDY    63  63 100 SW7       29.81R
CRESTON *      CLOUDY    64  61  88 SW8       29.82R
HARLAN  *      CLOUDY    63  63 100 W6        29.83R
LAMONI         PTSUNNY   69  60  73 SW12      29.82S
RED OAK *      CLOUDY    68  61  77 SW9       29.80S
SHENANDOAH *   CLOUDY    68  61  77 SW10      29.81R
$$

IAZ047>049-059>061-072>074-084-261800-
   CENTRAL IOWA

CITY           SKY/WX    TMP DP  RH WIND       PRES   REMARKS
AMES           LGT RAIN  62  59  90 CALM      29.80R
ANKENY *       PTSUNNY   63  61  94 SW5       29.80R FOG
CHARITON *     DRIZZLE   63  61  94 SW6       29.82R
DES MOINES     LGT RAIN  64  60  87 SW8       29.80R FOG
GRINNELL*      CLOUDY    61  59  94 W16G23    29.78R FOG
KNOXVILLE *    PTSUNNY   63  59  88 NW9       29.79R
MARSHALLTOWN   RAIN      61  59  93 W15       29.77R FOG
PELLA *        PTSUNNY   64  64 100 W15       29.81R
PERRY *        DRIZZLE   61  61 100 S9        29.81S
$$

IAZ004>006-015-016-023>025-035-036-261800-
   NORTH CENTRAL IOWA

CITY           SKY/WX    TMP DP  RH WIND       PRES   REMARKS
ALGONA *       LGT RAIN  61  61 100 SW6       29.80R
CLARION *      PTSUNNY   64 N/A N/A NW5       29.78R
ESTHERVILLE    LGT RAIN  58  57  97 N8        29.79R FOG
FORT DODGE *   CLOUDY    61  57  88 CALM      29.80R
MASON CITY     LGT RAIN  63  60  90 W14       29.77R
FOREST CITY *  DRIZZLE   61  61 100 W8        29.77S
IOWA FALLS *   RAIN      61  59  94 W10       29.79R
$$

IAZ007>011-017>019-026>030-037>042-050>054-066-261800-
   NORTHEAST IOWA

CITY           SKY/WX    TMP DP  RH WIND       PRES   REMARKS
CEDAR RAPIDS   RAIN      67  65  93 SE13G20   29.68F FOG
CHARLES CITY * HVY RAIN  61  61 100 NE14      29.75S VSB 1
CLINTON *      CLOUDY    70  64  83 S18       29.77S
DECORAH *      CLOUDY    61  61 100 NE9G15    29.71F
DUBUQUE        CLOUDY    67  64  90 S15       29.72S
MONTICELLO *   PTSUNNY   70  66  88 S16       29.70F
OELWEIN *      LGT RAIN  63  61  94 N8        29.72S
WATERLOO       RAIN      62  60  93 NW10      29.72S FOG
$$

IAZ064-065-067-068-078-261800-
   EAST CENTRAL IOWA

CITY           SKY/WX    TMP DP  RH WIND       PRES   REMARKS
DAVENPORT      CLOUDY    69  63  81 S15       29.75S
IOWA CITY      CLOUDY    70  65  84 S9        29.70F
MT. PLEASANT * PTSUNNY   72  63  73 SW23G31   29.76R
MUSCATINE *    PTSUNNY   75  64  69 S22G28    29.71F
QUAD CITIES    PTSUNNY   73  63  70 SW20G30   29.73F
$$

IAZ062-063-075>077-085>089-095>099-261800-
   SOUTHEAST IOWA

CITY           SKY/WX    TMP DP  RH WIND       PRES   REMARKS
BURLINGTON     PTSUNNY   72  62  71 SW17G31   29.77R
FAIRFIELD *    CLOUDY    66  61  82 W20G28    29.77R
FORT MADISON * PTSUNNY   72  63  73 SW14G23   29.79R
KEOKUK *       CLOUDY    72  61  68 SW20G28   29.79R
OSKALOOSA *    CLOUDY    64  61  88 NW17G23   29.78R
CENTERVILLE *    N/A     64  64 100 W10       29.84R
OTTUMWA        CLOUDY    66  61  84 W15       29.78R
WASHINGTON *   PTSUNNY   68  63  83 SW22G31   29.74R
$$

ABBREVIATIONS USED IN REMARKS
   TC - TEMPERATURES IN CELSIUS
  WCI - WIND CHILL INDEX
   HX - HEAT INDEX
  VSB - VISIBILITY
$$




USA.gov is the U.S. government's official web portal to all federal, state and local government web resources and services.